Regional Weather Roundup
Issued by NWS

Home | Current Version | Previous Version | Graphics & Text | Print | Product List | Glossary On
Versions: 1 2 3 4 5 6 7 8 9 10 11 12 13 14 15 16 17 18 19 20 21 22 23 24 25 26 27 28 29 30 31 32 33 34 35 36 37 38 39 40 41 42 43 44 45 46 47 48 49 50
000
ASUS43 KLMK 051410
RWRKY
KENTUCKY REGIONAL WEATHER ROUNDUP
NATIONAL WEATHER SERVICE LOUISVILLE KY
900 AM EST THU MAR 05 2015

NOTE "FAIR" INDICATES FEW OR NO CLOUDS BELOW 12,000 FEET
WITH NO SIGNIFICANT WEATHER AND/OR OBSTRUCTIONS TO VISIBILITY.

KYZ001>023-026-027-061>063-070>075-051500-
WESTERN AND SOUTH CENTRAL KENTUCKY

CITY           SKY/WX    TMP DP  RH WIND       PRES   REMARKS
PADUCAH        CLOUDY    20   7  57 N16       30.43R WCI   6
HENDERSON      CLOUDY    19   9  63 N8        30.41S WCI   9
OWENSBORO      PTSUNNY   19   9  65 N6        30.39S WCI  11
HOPKINSVILLE   FLURRIES  18  13  82 N10       30.36R WCI   6
BOWLING GREEN  LGT SNOW  20  16  84 N7        30.35R FOG     WCI  11
GLASGOW        LGT SNOW  20  18  91 N9        30.31R WCI  10
$$

KYZ024-025-028>034-038-045-046-053-051500-
NORTH CENTRAL KENTUCKY

CITY           SKY/WX    TMP DP  RH WIND       PRES   REMARKS
LOUISVILLE/SDF LGT SNOW  20  15  81 N9        30.37S WCI   9
LOUISVILLE/LOU LGT SNOW  20  15  81 N6        30.37S WCI  12
FORT KNOX      NOT AVBL
$$

KYZ035>037-039>044-047>052-055>060-089>105-051500-
NORTHEAST KENTUCKY

CITY           SKY/WX    TMP DP  RH WIND       PRES   REMARKS
LEXINGTON      FOG       17  14  88 N10       30.29F VSB 3/4 WCI   5
COVINGTON      CLOUDY    19   9  65 N9        30.35R WCI   8
FRANKFORT      LGT SNOW  18  13  80 N9G17     30.31R VSB 3/4 WCI   7
$$

KYZ054-064>069-076>088-106>120-051500-
SOUTHEAST KENTUCKY

CITY           SKY/WX    TMP DP  RH WIND       PRES   REMARKS
JACKSON        SNOW      21  17  84 VRB6      30.20R VSB 1/4 WCI  13
LONDON         HAZE      22  17  81 N9G21     30.19R VSB 1/4 WCI  12
SOMERSET       SNOW      19  19 100 NE9       30.23F VSB 1/2 WCI   9
MIDDLESBORO    LGT SNOW  29  26  86 N8        30.15R WCI  21
MONTICELLO     SNOW      21  19  93 N14       30.28R VSB 1/2 WCI   8
$$



USA.gov is the U.S. government's official web portal to all federal, state and local government web resources and services.